Date String (YYYY-MM-DD hh:mm:ss) UTC,Instrument flags,Ambient pressure (hPa),Sample flow (lpm),Bypass flow (lpm),Sample temperature (°C),Ambient temperature (°C),ASC tube jacket temperature (°C),LED temperature (°C),Box temperature (°C),Sample RH (%),Span deviation,Mass concentration (μg/m³),Mass concentration (μg/m³),Mass concentration (μg/m³)
DateTimeUTC,F1_M11,P_M11,Q1_M11,Q2_M11,T1_M11,T2_M11,T3_M11,T4_M11,T5_M11,U1_M11,ZSPAN_M11,X0_M11,X2_M11,X1_M11
2022-01-21 01:00:00,,0826.5,4.99,0.00,22.2,21.5,00.0,31.1,23.9,13.2,-000.2,0020.22,0015.44,0015.02
2022-01-21 01:01:00,,0826.5,5.00,0.00,22.2,21.5,00.0,31.1,23.9,13.2,-000.4,0020.28,0015.50,0015.07
2022-01-21 01:02:00,,0826.5,4.98,0.00,22.2,21.5,00.0,31.1,23.9,13.2,-000.5,0020.23,0015.49,0015.07
2022-01-21 01:03:00,,0826.5,4.99,0.00,22.2,22.1,00.0,31.2,24.1,13.1,-000.7,0020.26,0015.52,0015.11
2022-01-21 01:04:00,,0826.6,5.00,0.00,22.4,22.9,00.0,31.2,24.3,13.1,-000.7,0020.34,0015.59,0015.18
2022-01-21 01:05:00,,0826.6,5.00,0.00,22.5,23.1,00.0,31.2,24.5,13.0,-000.6,0020.49,0015.66,0015.23
2022-01-21 01:06:00,,0826.6,5.00,0.00,22.5,22.9,00.0,31.3,24.4,12.9,-000.4,0020.54,0015.68,0015.24
2022-01-21 01:07:00,,0826.6,5.00,0.00,22.5,22.6,00.0,31.3,24.3,13.0,-000.6,0020.55,0015.66,0015.23
2022-01-21 01:08:00,,0826.5,5.01,0.00,22.5,22.4,00.0,31.3,24.2,13.0,-000.4,0020.47,0015.61,0015.20
2022-01-21 01:09:00,,0826.5,5.00,0.00,22.4,22.2,00.0,31.3,24.1,13.0,-000.4,0020.46,0015.58,0015.16
2022-01-21 01:10:00,,0826.5,5.00,0.00,22.4,22.0,00.0,31.3,24.1,13.0,-000.5,0020.30,0015.50,0015.09
2022-01-21 01:11:00,,0826.5,5.00,0.00,22.3,21.9,00.0,31.3,24.0,13.0,-000.7,0020.09,0015.39,0015.00
2022-01-21 01:12:00,,0826.5,5.00,0.00,22.3,21.8,00.0,31.3,24.0,13.0,-000.6,0019.97,0015.34,0014.96
2022-01-21 01:13:00,,0826.6,5.00,0.00,22.3,21.8,00.0,31.3,24.0,13.0,-000.6,0019.92,0015.30,0014.93
2022-01-21 01:14:00,,0826.6,4.99,0.00,22.3,21.7,00.0,31.3,24.0,13.0,-000.4,0019.94,0015.27,0014.89
2022-01-21 01:15:00,,0826.5,5.02,0.00,22.3,21.7,00.0,31.3,24.0,13.1,-000.2,0020.14,0015.34,0014.94
2022-01-21 01:16:00,,0826.5,4.99,0.00,22.3,21.7,00.0,31.3,24.0,13.0,-000.4,0020.32,0015.37,0014.98
2022-01-21 01:17:00,,0826.6,5.00,0.00,22.3,21.7,00.0,31.3,24.0,13.1,-000.8,0020.42,0015.39,0015.03
2022-01-21 01:18:00,,0826.5,4.99,0.00,22.3,21.6,00.0,31.3,24.1,13.1,-000.7,0020.49,0015.45,0015.07
2022-01-21 01:19:00,,0826.5,4.99,0.00,22.3,21.6,00.0,31.3,24.0,13.1,-000.8,0020.72,0015.56,0015.16
2022-01-21 01:20:00,,0826.5,5.01,0.00,22.3,21.6,00.0,31.2,24.0,13.1,-000.8,0020.96,0015.66,0015.24
2022-01-21 01:21:00,,0826.5,4.98,0.00,22.2,21.6,00.0,31.2,24.0,13.1,-000.8,0021.09,0015.75,0015.32
2022-01-21 01:22:00,,0826.5,5.01,0.00,22.2,21.6,00.0,31.2,24.0,13.1,-000.8,0021.26,0015.84,0015.40
2022-01-21 01:23:00,,0826.5,5.00,0.00,22.2,21.5,00.0,31.2,24.0,13.1,-000.9,0021.34,0015.91,0015.44
2022-01-21 01:24:00,,0826.5,5.02,0.00,22.2,21.5,00.0,31.2,23.9,13.1,-000.9,0021.46,0015.98,0015.51
2022-01-21 01:25:00,,0826.5,4.99,0.00,22.2,21.5,00.0,31.2,23.9,13.2,-001.1,0021.49,0016.03,0015.56
2022-01-21 01:26:00,,0826.5,5.00,0.00,22.2,21.5,00.0,31.2,23.9,13.2,-001.2,0021.33,0015.97,0015.54
2022-01-21 01:27:00,,0826.5,5.01,0.00,22.2,21.5,00.0,31.2,23.9,13.2,-001.2,0021.13,0015.94,0015.50
2022-01-21 01:28:00,,0826.5,4.99,0.00,22.1,21.5,00.0,31.2,23.9,13.2,-001.0,0021.11,0015.94,0015.48
2022-01-21 01:29:00,,0826.5,5.00,0.00,22.1,21.4,00.0,31.1,23.8,13.2,-001.1,0021.08,0015.92,0015.45
2022-01-21 01:30:00,,0826.5,5.01,0.00,22.1,21.5,00.0,31.1,23.8,13.2,-001.1,0020.96,0015.86,0015.40
2022-01-21 01:31:00,,0826.5,5.00,0.00,22.2,21.9,00.0,31.2,24.0,13.2,-001.1,0020.76,0015.80,0015.35
2022-01-21 01:32:00,,0826.5,5.00,0.00,22.3,22.7,00.0,31.2,24.2,13.1,-001.3,0020.67,0015.74,0015.31
2022-01-21 01:33:00,,0826.5,4.99,0.00,22.4,23.2,00.0,31.2,24.4,13.0,-001.5,0020.62,0015.72,0015.32
2022-01-21 01:34:00,,0826.5,5.00,0.00,22.5,23.0,00.0,31.3,24.5,12.9,-001.4,0020.64,0015.73,0015.32
2022-01-21 01:35:00,,0826.5,5.01,0.00,22.5,22.8,00.0,31.3,24.4,12.9,-001.3,0020.70,0015.76,0015.33
2022-01-21 01:36:00,,0826.5,4.99,0.00,22.5,22.6,00.0,31.3,24.4,12.9,-001.4,0020.86,0015.81,0015.35
2022-01-21 01:37:00,,0826.5,5.01,0.00,22.5,22.5,00.0,31.3,24.3,12.9,-001.3,0021.17,0015.92,0015.41
2022-01-21 01:38:00,,0826.5,4.99,0.00,22.5,22.3,00.0,31.3,24.3,12.9,-001.3,0021.28,0015.97,0015.46
2022-01-21 01:39:00,,0826.5,4.99,0.00,22.5,22.1,00.0,31.3,24.2,12.9,-001.4,0021.38,0016.02,0015.49
2022-01-21 01:40:00,,0826.5,5.01,0.00,22.4,22.0,00.0,31.3,24.2,13.0,-001.5,0021.43,0016.04,0015.53
2022-01-21 01:41:00,,0826.4,4.98,0.00,22.4,22.0,00.0,31.3,24.2,13.0,-001.5,0021.46,0016.07,0015.55
2022-01-21 01:42:00,,0826.3,5.00,0.00,22.4,21.9,00.0,31.3,24.1,13.0,-001.5,0021.53,0016.09,0015.57
2022-01-21 01:43:00,,0826.4,5.01,0.00,22.4,21.7,00.0,31.3,24.1,13.0,-001.3,0021.57,0016.10,0015.57
2022-01-21 01:44:00,,0826.5,4.99,0.00,22.3,21.7,00.0,31.3,24.0,13.0,-001.2,0021.55,0016.06,0015.53
2022-01-21 01:45:00,,0826.4,5.02,0.00,22.3,21.6,00.0,31.3,24.0,13.0,-001.1,0021.51,0016.03,0015.51
2022-01-21 01:46:00,,0826.4,4.99,0.00,22.3,21.6,00.0,31.3,24.0,13.1,-001.1,0021.42,0016.01,0015.51
2022-01-21 01:47:00,,0826.4,5.01,0.00,22.3,21.6,00.0,31.3,24.0,13.1,-001.1,0021.29,0015.97,0015.49
2022-01-21 01:48:00,,0826.4,5.00,0.00,22.2,21.6,00.0,31.3,24.0,13.1,-001.2,0021.06,0015.89,0015.46
2022-01-21 01:49:00,,0826.4,5.01,0.00,22.2,21.5,00.0,31.3,23.9,13.1,-001.2,0021.09,0015.90,0015.48
2022-01-21 01:50:00,,0826.4,4.99,0.00,22.2,21.5,00.0,31.2,23.9,13.1,-000.9,0021.06,0015.91,0015.51
2022-01-21 01:51:00,,0826.4,5.02,0.00,22.2,21.4,00.0,31.2,23.9,13.1,-000.9,0020.98,0015.88,0015.51
2022-01-21 01:52:00,,0826.3,4.99,0.00,22.2,21.4,00.0,31.2,23.9,13.2,-000.8,0020.99,0015.90,0015.53
2022-01-21 01:53:00,,0826.3,5.01,0.00,22.1,21.4,00.0,31.2,23.8,13.2,-000.8,0021.02,0015.95,0015.57
2022-01-21 01:54:00,,0826.3,5.00,0.00,22.1,21.4,00.0,31.2,23.8,13.2,-000.7,0021.09,0016.02,0015.64
2022-01-21 01:55:00,,0826.3,4.99,0.00,22.1,21.4,00.0,31.2,23.8,13.2,-000.6,0021.17,0016.10,0015.73
2022-01-21 01:56:00,,0826.3,5.00,0.00,22.1,21.4,00.0,31.1,23.8,13.2,-000.6,0021.23,0016.15,0015.79
2022-01-21 01:57:00,,0826.3,5.01,0.00,22.1,21.4,00.0,31.1,23.8,13.2,-000.6,0021.32,0016.16,0015.78
2022-01-21 01:58:00,,0826.3,4.99,0.00,22.1,21.4,00.0,31.1,23.8,13.2,-000.5,0021.28,0016.16,0015.79
2022-01-21 01:59:00,,0826.3,5.01,0.00,22.1,21.4,00.0,31.1,23.8,13.2,-000.6,0021.27,0016.15,0015.76
